sat.trackr.live / text

‹ back to catalog

KINEIS-4E

NORAD 63300 · 2025-056A

PAYLOAD ACTIVE UNKNOWN

§ Identity

Operator
Country
FR
Launch date
2025-03-18
Launch site
RLLB
Launch vehicle
Mass (kg)
RCS (m²)

External: N2YO · Heavens-Above · Gunter

§ Orbital elements

Epoch: 2026-09-22T21:49:34.992192Z

Period
97.80 min
Inclination
97.9147°
Eccentricity
0.0001691
Mean motion
14.72324209 rev/d
Perigee alt
652.5 km
Apogee alt
654.8 km
Semi-major
7,031.8 km
B*
1.5874e-4
RAAN
27.1549°
Arg perigee
160.6584°
Mean anomaly
199.4688°
Rev number
8,150

§ Raw data

KINEIS-4E1 63300U 25056A   26265.90943278  .00000955  00000+0  15874-3 0  99992 63300  97.9147  27.1549 0001691 160.6584 199.4688 14.72324209 81509

JSON: /api/v1/satellites/63300 · /tle

For live sub-satellite position, see the globe view (requires WebGL).

§ Visibility from observer

Set your observer location to see the next 7 days of passes ≥ 10°. The values pass through the URL so the page stays shareable.

No JS? Fill the form by hand. The geolocation button needs JavaScript.

§ Radio — SatNOGS DB

ModeDescriptionDownlinkUplink
BPSK PMT-A3 Mode U 400.651 MHz
FM S-band telemetry 2.261 GHz

2 transmitters · refreshed weekly from db.satnogs.org